SCP
0 0 0 0 0 0 0 0 0 0 0 0 0 0 0 0 0 0 0 0 0 0 0 0 0 0 0 0 0 0 -0 0 0 -0 0 0 0 0 0 0 0 0 0 0 0 0 0 0 0 0 0 0 0 0
0 0 0 0 0 0 0 0 0 0 0 0 0 0 0 0 0 0 0 0 0 0 0 0 -0 -0 -0 -0 0 0 0 0 0 0 0 0 0 0 0 0 0 0 0 0 0 0 0 0 0 0 0 -0 0 0
0 0 0 0 0 0 0 0 0 0 0 0 0 0 0 0 0 0 0 0 0 0 0 0 -0 0 0 0 0 0 0 0 0 0 0 0 0 0 0 0 0 0 0 0 0 0 0 0 -0 -0 -0 -0 0 0
0 0 0 0 0 0 0 0 0 0 0 0 0 0 -0 0 0 0 0 0 0 0 -0 -0 0 -0 -0 0 0 0 0 0 0 0 0 0 0 0 0 0 0 0 0 0 0 0 0 -0 0 -0 -0 0 0 0
0 0 0 0 0 0 0 0 0 0 -0 -0 -0 -0 -0 0 0 0 0 0 0 0 -0 -0 -0 -0 -0 0 0 0 0 0 0 0 0 0 0 0 0 0 0 0 0 0 0 0 0 0 0 0 -0 0 0 -0
0 0 0 0 0 0 0 0 0 0 -0 0 0 -0 -0 0 0 0 0 0 0 0 -0 -0 -0 -0 -0 -0 0 0 0 0 0 0 0 0 0 0 0 0 0 0 -0 0 0 0 0 0 0 0 0 0 0 0
0 0 0 0 0 0 0 -0 -0 -0 0 0 0 -0 -0 0 0 0 0 0 0 0 0 -0 0 0 -0 -0 0 0 0 0 0 0 0 0 0 0 0 0 0 0 0 0 0 0 0 0 0 0 0 0 0 0
0 0 0 0 0 0 -0 -0 -0 -0 0 0 0 -0 0 0 0 0 0 0 0 0 0 -0 -0 0 -0 -0 -0 -0 0 0 0 0 0 0 0 0 0 0 0 0 0 0 0 0 0 0 0 0 0 0 0 0
0 0 0 0 0 0 -0 -0 -0 0 0 0 -0 0 0 0 0 0 0 0 0 0 -0 -0 0 0 -0 -0 0 0 0 -0 0 0 0 0 0 0 -0 -0 -0 0 -0 -0 0 0 0 0 0 0 0 0 0 0
0 0 0 0 0 0 -0 -0 -0 0 0 -0 0 0 0 0 -0 0 0 0 0 0 0 -0 -0 -0 -0 0 -0 0 0 0 -0 -0 0 -0 -0 -0 -0 -0 -0 -0 -0 0 -0 0 0 0 0 -0 0 0 0 0
-0 0 0 0 0 0 -0 -0 -0 0 0 0 0 0 0 0 0 0 0 0 0 0 -0 -0 0 -0 0 -0 0 0 0 0 0 0 0 0 -0 -0 0 0 0 0 0 0 -0 0 -0 -0 -0 0 0 0 0 0
0 0 0 0 0 -0 0 -0 0 0 0 0 0 0 0 0 0 0 -0 0 0 -0 0 0 -0 0 0 0 0 0 0 0 0 0 0 0 0 0 -0 0 -0 -0 -0 -0 -0 -0 0 0 0 0 0 0 0 0
0 0 0 0 0 0 -0 -0 -0 -0 0 0 0 0 0 0 0 0 0 0 0 -0 -0 0 -0 0 -0 -0 0 0 0 0 0 0 0 0 -0 0 -0 -0 -0 -0 -0 -0 -0 -0 0 0 0 0 0 0 0 0
0 0 0 0 0 0 -0 -0 -0 0 0 0 0 0 0 0 0 0 0 0 -0 -0 -0 -0 -0 -0 0 -0 0 0 0 0 0 0 0 0 0 -0 -0 -0 -0 -0 -0 -0 -0 0 0 0 0 0 0 0 0 0
0 0 -0 0 0 0 -0 0 -0 0 0 0 0 0 0 0 0 0 0 0 0 0 -0 0 -0 -0 -0 0 0 0 0 0 0 0 0 0 -0 -0 -0 -0 -0 -0 -0 -0 0 0 -0 -0 0 0 0 0 0 0
0 0 0 0 0 0 0 0 0 0 0 0 0 0 0 0 0 0 0 0 0 0 0 0 -0 0 0 0 0 0 0 0 0 0 0 0 -0 0 -0 -0 -0 -0 0 0 0 0 -0 -0 -0 -0 0 0 -0 0
0 0 0 0 0 0 0 0 0 0 0 0 0 0 0 0 0 0 0 0 0 0 0 0 0 0 0 0 0 0 0 0 0 0 0 0 0 0 0 0 0 0 0 0 0 0 0 0 0 0 -0 -0 -0 -0
0 0 0 0 0 0 0 0 0 0 0 0 0 0 0 0 0 0 0 0 0 0 0 0 0 0 0 0 0 0 0 0 0 0 0 0 0 0 -0 -0 0 0 0 0 0 0 0 0 0 -0 -0 -0 -0 -0
0 0 0 0 0 0 0 0 0 0 0 0 0 0 0 -0 0 0 0 0 0 -0 -0 0 0 0 0 0 0 0 0 0 0 0 0 0 0 0 0 0 0 0 0 0 -0 0 0 0 0 0 0 0 0 -0
0 0 0 0 0 0 0 0 0 0 0 0 0 0 -0 -0 0 0 0 0 0 0 0 -0 -0 0 0 0 0 0 0 0 0 0 0 0 0 0 0 0 0 0 -0 -0 0 -0 -0 0 0 0 -0 -0 0 0
0 0 0 0 0 0 0 0 0 0 0 0 0 0 0 0 0 0 -0 0 0 0 0 0 0 -0 -0 -0 0 0 0 0 0 0 0 0 0 0 0 0 -0 -0 -0 -0 -0 0 0 0 0 0 0 0 0 0
0 0 0 0 0 0 0 0 0 0 0 0 0 0 0 0 0 0 0 0 0 -0 0 0 -0 0 -0 -0 -0 -0 -0 0 0 0 0 0 0 0 0 0 -0 -0 -0 -0 0 -0 0 0 0 0 0 0 0 0
0 0 0 0 0 0 0 0 0 0 0 0 0 0 0 0 0 0 0 0 0 0 0 0 -0 -0 0 -0 -0 -0 -0 -0 0 0 0 0 0 0 0 -0 -0 0 -0 -0 0 0 0 0 0 0 0 0 0 0
0 0 0 0 0 0 0 0 0 0 0 0 0 0 0 0 0 0 0 0 0 0 0 0 0 0 -0 -0 -0 0 -0 -0 0 0 0 0 0 0 0 0 0 0 0 0 0 0 -0 0 -0 0 0 0 0 0
0 0 0 0 0 0 0 0 0 0 0 0 0 0 0 0 0 0 -0 0 0 0 0 0 0 0 0 -0 -0 -0 0 0 0 0 0 0 0 0 0 0 0 0 0 0 0 -0 -0 -0 -0 -0 -0 0 0 0
0 0 0 0 0 0 0 0 0 0 0 0 0 0 0 0 0 0 0 -0 -0 -0 -0 -0 -0 -0 -0 -0 -0 0 -0 0 0 0 0 0 0 0 0 0 0 0 0 0 -0 -0 -0 -0 -0 -0 0 0 0 0
0 0 0 0 0 0 0 0 0 0 0 0 0 0 0 0 0 0 0 0 0 -0 -0 -0 -0 -0 -0 -0 -0 0 -0 0 0 0 0 0 0 0 0 0 0 0 -0 -0 -0 -0 -0 -0 -0 0 0 0 0 0
-0 0 -0 0 0 0 0 0 0 0 0 0 0 0 0 0 0 0 0 0 0 0 0 0 -0 -0 -0 -0 -0 -0 -0 -0 -0 0 0 0 0 0 0 0 0 -0 0 0 -0 -0 -0 -0 0 0 0 0 0 0
0 0 0 0 0 0 0 0 0 0 0 0 0 0 0 0 0 0 0 0 0 0 0 0 0 0 0 0 0 0 -0 -0 -0 0 0 0 0 0 0 0 0 0 0 0 0 0 -0 0 0 0 0 0 0 0
0 0 0 0 0 0 0 0 0 0 0 0 0 0 0 0 0 0 0 0 0 0 0 0 0 0 0 0 0 0 -0 0 0 0 0 0 0 0 0 0 0 0 0 0 0 0 0 0 0 0 0 0 0 0
0 0 0 0 0 0 0 0 0 0 0 0 0 0 0 0 0 0 0 0 0 0 0 0 0 0 0 0 0 0 0 0 0 0 0 0 0 0 0 0 0 0 0 0 0 0 0 0 0 0 0 0 0 0
0 0 0 0 0 0 0 0 0 0 0 0 0 0 0 0 0 0 0 0 0 0 0 0 0 0 -0 -0 -0 -0 0 -0 -0 -0 -0 0 0 0 0 0 0 0 0 0 0 0 0 0 0 0 0 0 0 0
0 0 0 0 0 0 0 0 0 0 0 0 0 0 0 0 0 0 0 0 0 0 0 0 0 0 0 0 -0 -0 -0 0 -0 -0 -0 -0 -0 -0 0 0 0 0 0 0 0 0 0 0 0 0 0 0 0 0
Wind_Speed_500mb
33 36 39 41 42 42 41 42 47 50 44 38 40 38 37 36 32 35 41 17 20 18 56 23 39 45 51 27 9 33 21 5 5 10 5 4 3 5 3 6 13 5 4 5 4 6 7 29 15 6 25 53 59 46
34 37 40 41 43 44 43 43 49 48 35 36 40 37 35 32 28 27 39 29 28 30 57 66 41 17 22 38 38 15 18 25 8 4 4 6 4 4 3 5 13 5 5 9 10 6 16 35 38 45 53 65 54 71
34 38 40 40 43 45 44 44 46 37 36 38 39 37 32 31 31 27 35 32 31 25 48 24 16 38 34 30 25 13 12 13 22 33 6 4 3 4 3 6 7 8 11 9 7 15 22 45 57 69 72 76 69 69
35 39 41 40 41 42 42 43 42 38 39 41 39 34 33 31 27 27 30 24 20 21 9 20 33 32 38 47 41 33 40 40 41 23 3 3 2 11 5 12 8 9 8 12 16 17 47 54 50 70 76 75 71 60
34 36 40 42 41 41 40 41 42 38 40 39 37 35 31 28 25 24 14 6 15 10 8 29 44 35 55 46 30 32 28 33 28 9 4 3 3 7 6 8 14 12 8 2 7 22 41 27 41 52 79 72 65 63
34 37 40 41 42 41 38 42 43 38 39 38 39 37 29 24 22 20 5 6 23 21 13 8 24 31 63 39 39 36 39 28 10 15 8 20 36 14 7 7 24 44 60 41 22 59 66 55 57 57 75 67 61 60
35 35 38 39 39 41 38 39 41 37 38 39 41 29 19 16 12 4 4 18 30 30 9 10 14 21 51 36 29 30 33 26 21 9 17 14 34 24 8 8 23 59 68 65 64 67 51 46 52 58 61 59 54 53
35 36 37 37 38 38 38 40 41 40 38 38 28 17 11 7 4 2 10 29 19 11 7 6 9 21 38 20 20 30 26 23 36 15 14 10 12 14 13 22 42 45 44 38 39 59 73 63 55 53 49 47 46 43
34 36 36 36 36 34 34 39 39 39 34 29 20 10 1 2 3 8 29 12 5 4 7 5 5 8 29 18 14 18 15 8 13 8 10 14 10 13 9 30 32 16 36 58 62 61 57 55 47 39 34 32 35 33
34 34 35 35 34 30 29 34 39 35 29 20 7 5 3 5 20 12 6 6 5 3 4 5 8 7 17 13 10 19 11 5 6 7 10 10 8 15 12 7 25 58 58 60 62 46 47 44 37 31 27 26 25 25
32 31 33 33 31 28 29 28 38 37 23 15 10 4 5 7 4 3 4 6 8 5 7 8 10 8 11 5 5 11 2 4 6 7 6 4 5 7 18 36 49 48 44 31 45 44 37 35 31 28 27 23 20 19
27 30 34 32 24 23 25 26 36 30 25 21 14 14 9 5 3 6 3 6 4 2 10 13 21 14 12 9 6 8 4 5 3 4 7 4 4 24 25 36 38 31 32 39 36 38 32 28 22 21 22 20 17 16
27 34 33 29 23 21 21 24 26 26 23 6 6 7 5 4 11 4 6 2 5 11 8 21 12 12 9 8 5 5 7 1 3 7 4 3 13 34 35 36 35 29 35 37 36 30 26 25 23 18 18 16 14 15
25 30 30 29 21 17 20 25 19 18 9 2 4 10 3 3 0 5 3 3 3 9 25 24 13 4 7 8 1 5 5 3 6 5 4 4 23 34 35 36 40 41 43 43 36 29 26 24 23 20 16 15 13 16
29 32 27 25 16 16 21 17 12 7 4 4 4 4 4 2 9 10 11 9 8 16 22 16 11 5 4 4 2 3 6 5 2 3 4 26 33 34 39 38 39 47 47 32 31 29 26 23 21 23 20 17 16 18
29 28 15 11 16 19 17 7 6 5 5 5 7 3 5 4 9 7 12 14 15 14 18 6 6 3 4 5 6 3 2 0 3 2 18 33 40 37 36 39 50 39 29 31 31 26 24 23 23 27 26 23 22 20
24 11 17 18 19 14 5 5 4 5 7 6 8 13 15 15 14 8 8 7 12 12 3 1 4 1 4 3 1 1 1 3 8 20 25 40 41 40 48 45 38 38 36 32 28 23 21 21 22 24 27 27 24 21
20 17 13 14 14 4 5 5 4 5 9 12 7 3 12 18 16 13 11 10 5 4 6 2 5 1 3 3 4 4 6 13 20 25 38 30 35 36 39 44 38 34 33 33 28 22 22 24 23 23 23 25 24 23
24 11 6 9 8 6 3 6 6 7 9 10 11 14 15 17 21 17 9 11 10 6 5 2 4 3 5 6 7 12 20 24 32 35 24 33 27 41 40 37 37 37 34 31 24 15 15 12 13 16 18 19 19 20
16 5 4 4 6 3 4 4 6 9 9 5 10 12 12 14 12 4 6 4 8 4 2 3 5 6 5 7 10 22 24 36 35 35 29 36 33 34 35 36 37 33 32 27 21 16 13 15 17 18 14 13 13 15
5 6 1 1 2 8 5 3 6 10 12 9 11 11 8 9 7 9 11 8 7 4 5 8 8 2 13 16 18 25 39 30 31 35 39 36 35 30 25 33 32 29 27 24 19 16 12 9 14 21 22 15 13 13
8 6 4 6 4 4 8 10 9 14 9 10 11 8 8 5 7 8 12 11 6 7 7 7 13 23 24 26 32 42 29 27 21 21 22 25 27 27 26 25 28 24 18 17 15 12 9 4 10 12 17 15 17 16
7 7 4 6 4 7 7 8 8 7 4 6 4 4 6 6 4 16 4 6 5 9 15 13 16 20 18 20 25 22 20 14 16 18 25 24 24 22 23 23 20 21 22 20 18 16 10 9 13 13 12 15 21 25
9 7 5 5 11 6 5 6 8 7 6 4 3 6 4 6 16 4 5 5 7 22 19 16 22 23 24 27 31 28 23 14 17 23 24 21 21 23 21 18 19 18 13 13 17 20 17 13 15 15 14 17 21 20
2 4 4 7 7 6 6 4 5 3 5 6 4 5 5 9 4 3 4 7 22 26 19 17 25 27 27 27 27 26 26 23 18 25 24 19 21 24 24 24 24 23 22 24 28 25 26 23 20 19 15 10 10 11
4 8 10 7 6 7 6 6 7 9 4 5 7 3 4 4 2 6 5 8 23 27 20 20 24 27 24 24 19 19 19 17 23 27 27 27 25 23 21 23 25 23 18 16 15 21 28 26 25 20 19 19 18 18
6 8 12 12 9 11 6 6 6 4 5 6 2 0 2 4 6 4 3 5 15 24 21 20 19 20 20 18 20 18 20 24 29 24 20 18 17 17 13 7 8 7 16 21 15 14 18 24 20 15 15 20 23 25
11 7 6 3 7 11 3 5 5 7 6 5 3 4 4 6 5 4 5 8 8 16 21 21 19 14 10 14 24 27 27 26 27 30 27 22 19 17 16 12 9 10 11 13 15 15 14 12 9 11 11 9 7 13
9 11 9 8 9 9 13 11 7 7 6 8 5 3 4 2 7 6 8 8 5 7 19 25 23 27 23 26 28 32 28 31 33 33 28 32 30 27 27 24 19 14 16 16 15 14 12 10 10 8 5 4 5 6
10 18 9 7 7 8 9 14 5 4 10 7 6 5 4 7 7 2 2 4 7 10 15 26 34 29 23 22 29 33 29 32 28 28 24 23 24 16 16 19 22 23 20 22 20 20 22 23 22 18 13 9 7 5
5 12 9 9 7 7 7 8 5 9 11 8 3 5 4 4 5 8 13 15 15 15 11 17 34 33 31 27 25 34 36 31 26 23 14 8 14 16 12 7 14 17 19 20 21 23 22 23 21 16 13 12 10 9
13 16 9 5 6 7 10 5 3 4 5 15 12 5 9 12 14 17 18 16 17 17 12 14 25 34 29 28 31 35 21 20 28 27 23 16 20 16 11 6 9 12 12 15 19 19 19 18 16 15 13 13 12 9
16 11 15 7 5 4 8 5 5 5 5 6 8 11 14 10 8 5 5 7 7 8 10 15 18 22 14 13 28 32 25 17 11 28 26 18 16 14 13 9 8 9 9 10 14 18 20 19 16 13 13 14 14 15
Wind_Direction_500mb
310 316 319 323 328 329 329 328 329 329 332 335 340 339 339 336 340 339 329 318 317 286 292 281 306 295 300 304 307 307 323 3 306 355 341 339 321 7 303 291 122 116 161 80 83 106 112 352 329 115 137 117 124 120
309 316 319 324 330 328 329 329 329 331 334 334 336 339 338 334 333 335 326 334 316 282 284 307 305 323 304 302 279 288 290 294 304 320 286 301 313 330 328 156 30 64 0 117 40 58 37 52 81 95 116 113 117 120
311 315 318 324 326 327 328 330 332 335 332 332 336 340 340 335 329 322 319 337 326 291 308 317 336 342 335 328 315 273 301 312 292 286 257 244 308 287 327 62 110 54 13 85 127 20 62 67 81 98 115 112 115 123
309 313 317 321 324 328 327 332 334 330 329 333 336 338 336 331 332 324 321 333 322 307 309 293 330 349 360 347 338 317 305 320 300 297 243 324 330 312 42 68 66 13 27 101 82 113 77 56 74 103 108 113 113 115
307 314 316 318 322 324 325 331 334 332 331 332 334 331 327 326 337 331 333 3 339 343 283 292 321 358 359 359 358 356 9 348 321 345 339 71 23 28 2 65 29 356 172 104 88 90 104 92 94 109 113 109 113 115
306 312 317 319 321 320 324 331 334 332 332 330 327 323 312 312 330 347 324 285 336 330 319 304 323 324 357 6 14 27 12 358 356 7 353 8 12 49 47 70 11 59 75 96 98 99 100 101 105 107 108 111 110 105
308 311 313 314 316 318 322 330 331 329 332 330 326 321 304 299 315 336 343 323 325 319 295 293 304 329 347 350 358 8 5 8 19 59 14 19 20 38 34 53 55 72 84 91 99 105 90 102 103 108 106 106 105 101
301 307 311 313 315 317 320 327 328 332 335 331 327 321 325 294 312 184 267 318 312 311 296 317 290 321 354 341 342 355 352 7 22 29 7 15 32 49 50 77 89 87 95 96 105 114 112 115 112 109 109 111 106 99
303 307 311 313 313 315 319 324 326 337 336 336 329 319 333 339 333 312 314 327 354 330 321 315 304 311 338 338 334 341 2 37 21 25 12 16 28 38 144 140 129 94 114 114 112 111 115 110 111 112 113 111 104 102
305 306 310 313 313 312 321 325 329 340 344 339 345 257 188 304 313 324 357 346 1 357 341 265 291 286 325 328 323 357 19 34 56 356 18 26 68 135 155 140 130 128 126 127 120 113 116 114 118 121 117 112 107 108
295 306 313 313 315 316 321 328 331 347 352 1 339 299 348 327 333 353 4 23 350 14 331 301 297 288 333 0 291 16 306 349 59 300 91 44 67 5 111 129 137 135 133 128 122 120 116 108 118 123 122 116 113 109
305 311 313 313 313 307 313 323 331 345 345 342 331 318 357 15 36 70 350 334 0 305 310 326 319 308 314 330 8 359 27 17 43 343 59 65 39 146 135 139 141 138 133 126 121 117 110 103 100 108 114 114 112 111
311 311 315 312 303 308 307 317 325 325 329 346 312 300 327 7 35 71 341 19 351 330 330 335 322 334 323 339 343 357 28 129 47 37 69 95 106 138 153 154 153 153 145 133 124 113 106 99 98 95 107 110 108 111
305 306 313 299 298 306 317 318 318 313 326 315 301 327 146 292 230 219 282 230 288 299 329 331 301 307 337 347 23 17 347 69 70 73 100 127 124 148 165 164 157 152 147 137 132 125 107 98 96 94 97 97 104 113
301 311 305 294 312 324 317 317 292 280 288 281 254 272 247 306 289 283 294 284 312 319 327 316 293 259 293 331 9 27 19 55 95 157 153 140 146 156 150 155 148 144 138 135 140 124 108 95 91 100 99 99 102 109
314 316 305 319 316 320 318 301 227 246 251 249 238 266 243 316 301 277 294 296 320 307 314 278 281 13 350 360 29 41 322 284 208 198 138 148 152 154 156 150 139 140 159 149 137 122 112 103 98 100 97 97 99 101
321 319 312 313 318 315 289 212 230 239 266 244 244 241 255 273 262 280 282 278 321 318 280 284 306 23 293 347 218 186 134 181 155 137 140 153 162 157 146 147 166 172 159 147 139 127 116 114 114 106 102 103 100 100
323 315 298 311 325 330 182 206 242 252 255 249 238 296 247 254 265 274 292 279 289 281 302 297 294 198 233 231 235 230 161 141 153 149 135 131 157 163 156 158 162 173 167 163 157 145 145 140 131 123 113 110 106 105
322 322 288 291 330 331 216 209 224 269 262 276 269 280 275 285 289 282 251 254 263 253 265 295 305 228 235 213 226 194 176 157 146 152 159 169 162 168 169 176 182 179 177 170 165 152 135 129 150 146 135 124 116 113
317 279 241 266 297 278 275 224 220 263 266 273 276 276 279 285 291 252 168 220 229 225 236 231 239 254 266 287 179 152 148 160 158 156 153 159 172 176 186 191 184 184 180 173 170 167 174 192 204 201 183 155 135 122
252 203 182 224 277 235 258 263 244 260 282 272 288 294 270 254 229 204 208 214 231 225 236 237 292 156 131 126 151 147 146 134 130 132 135 148 156 158 162 175 185 181 179 179 182 186 211 244 254 231 213 200 160 128
188 187 218 194 226 241 267 222 251 308 274 274 285 234 256 238 219 207 171 202 232 223 203 164 137 137 129 128 128 142 145 151 157 166 170 162 162 162 165 169 168 175 183 180 186 187 169 137 144 161 188 204 190 174
193 165 199 206 222 219 256 218 228 238 226 264 266 261 238 220 193 160 235 225 229 184 168 164 162 168 154 149 159 155 153 153 170 169 169 169 166 170 171 170 173 170 172 188 200 193 176 146 133 143 164 185 187 189
136 180 203 212 209 252 240 234 228 245 265 275 247 263 227 166 156 220 232 219 191 177 169 163 169 161 162 170 179 179 179 180 186 187 188 186 185 179 176 176 182 193 214 213 211 204 200 182 162 156 141 143 151 162
191 205 199 259 229 241 211 241 230 236 249 227 238 263 204 164 160 245 229 199 178 176 184 188 184 189 183 184 190 198 210 211 206 197 197 190 187 193 204 211 218 232 235 239 228 218 206 201 195 193 191 190 186 189
246 222 208 235 210 200 217 200 209 213 247 260 238 279 181 112 165 240 238 192 184 186 187 183 188 190 199 203 213 219 216 201 181 189 188 189 196 207 218 233 243 249 226 200 202 212 206 206 206 214 229 235 238 240
245 264 228 231 258 294 251 273 219 186 247 244 266 22 145 210 239 255 188 185 189 192 186 189 197 205 208 205 198 188 175 175 185 185 189 206 228 238 238 252 226 212 204 187 195 198 201 197 199 220 245 256 261 257
241 266 223 309 274 225 154 271 251 211 235 212 158 188 218 206 243 139 150 156 165 189 193 191 196 204 222 209 200 201 196 194 201 213 223 223 218 217 201 189 179 181 158 178 176 163 157 167 202 234 261 272 249 226
242 224 219 253 261 243 219 213 237 229 208 187 167 233 245 173 125 123 144 157 176 205 213 210 217 218 240 221 203 207 211 205 207 217 225 227 227 226 222 221 222 221 196 184 178 187 208 230 240 252 245 203 179 201
247 199 212 223 210 230 235 208 256 286 183 164 279 278 190 160 153 123 290 298 297 301 274 223 209 210 224 203 201 208 211 209 224 230 241 240 236 237 233 232 233 220 214 208 210 210 218 219 216 229 240 251 255 274
257 191 223 239 258 251 261 216 219 292 228 206 250 270 272 287 281 279 275 277 281 301 273 222 204 202 212 215 223 224 218 219 218 222 213 209 200 188 182 194 186 193 210 222 224 225 228 222 224 237 248 255 256 276
206 209 213 225 253 270 182 196 234 237 224 209 216 294 282 280 287 279 265 265 265 256 242 219 210 214 219 239 233 220 219 217 201 201 199 199 187 184 191 186 179 186 203 196 192 206 218 225 230 236 249 245 251 255
212 232 225 240 305 242 183 184 242 262 228 238 247 248 249 242 238 251 265 276 276 223 236 224 214 194 213 219 207 194 176 186 213 214 202 194 192 210 207 201 195 179 163 163 181 196 208 215 224 235 235 238 246 263
Wind_Speed_850mb
33 36 39 41 42 42 41 42 47 50 44 38 40 38 37 36 32 35 41 17 20 18 56 23 39 45 51 27 9 33 21 5 5 10 5 4 3 5 3 6 13 5 4 5 4 6 7 29 15 6 25 53 59 46
34 37 40 41 43 44 43 43 49 48 35 36 40 37 35 32 28 27 39 29 28 30 57 66 41 17 22 38 38 15 18 25 8 4 4 6 4 4 3 5 13 5 5 9 10 6 16 35 38 45 53 65 54 71
34 38 40 40 43 45 44 44 46 37 36 38 39 37 32 31 31 27 35 32 31 25 48 24 16 38 34 30 25 13 12 13 22 33 6 4 3 4 3 6 7 8 11 9 7 15 22 45 57 69 72 76 69 69
35 39 41 40 41 42 42 43 42 38 39 41 39 34 33 31 27 27 30 24 20 21 9 20 33 32 38 47 41 33 40 40 41 23 3 3 2 11 5 12 8 9 8 12 16 17 47 54 50 70 76 75 71 60
34 36 40 42 41 41 40 41 42 38 40 39 37 35 31 28 25 24 14 6 15 10 8 29 44 35 55 46 30 32 28 33 28 9 4 3 3 7 6 8 14 12 8 2 7 22 41 27 41 52 79 72 65 63
34 37 40 41 42 41 38 42 43 38 39 38 39 37 29 24 22 20 5 6 23 21 13 8 24 31 63 39 39 36 39 28 10 15 8 20 36 14 7 7 24 44 60 41 22 59 66 55 57 57 75 67 61 60
35 35 38 39 39 41 38 39 41 37 38 39 41 29 19 16 12 4 4 18 30 30 9 10 14 21 51 36 29 30 33 26 21 9 17 14 34 24 8 8 23 59 68 65 64 67 51 46 52 58 61 59 54 53
35 36 37 37 38 38 38 40 41 40 38 38 28 17 11 7 4 2 10 29 19 11 7 6 9 21 38 20 20 30 26 23 36 15 14 10 12 14 13 22 42 45 44 38 39 59 73 63 55 53 49 47 46 43
34 36 36 36 36 34 34 39 39 39 34 29 20 10 1 2 3 8 29 12 5 4 7 5 5 8 29 18 14 18 15 8 13 8 10 14 10 13 9 30 32 16 36 58 62 61 57 55 47 39 34 32 35 33
34 34 35 35 34 30 29 34 39 35 29 20 7 5 3 5 20 12 6 6 5 3 4 5 8 7 17 13 10 19 11 5 6 7 10 10 8 15 12 7 25 58 58 60 62 46 47 44 37 31 27 26 25 25
32 31 33 33 31 28 29 28 38 37 23 15 10 4 5 7 4 3 4 6 8 5 7 8 10 8 11 5 5 11 2 4 6 7 6 4 5 7 18 36 49 48 44 31 45 44 37 35 31 28 27 23 20 19
27 30 34 32 24 23 25 26 36 30 25 21 14 14 9 5 3 6 3 6 4 2 10 13 21 14 12 9 6 8 4 5 3 4 7 4 4 24 25 36 38 31 32 39 36 38 32 28 22 21 22 20 17 16
27 34 33 29 23 21 21 24 26 26 23 6 6 7 5 4 11 4 6 2 5 11 8 21 12 12 9 8 5 5 7 1 3 7 4 3 13 34 35 36 35 29 35 37 36 30 26 25 23 18 18 16 14 15
25 30 30 29 21 17 20 25 19 18 9 2 4 10 3 3 0 5 3 3 3 9 25 24 13 4 7 8 1 5 5 3 6 5 4 4 23 34 35 36 40 41 43 43 36 29 26 24 23 20 16 15 13 16
29 32 27 25 16 16 21 17 12 7 4 4 4 4 4 2 9 10 11 9 8 16 22 16 11 5 4 4 2 3 6 5 2 3 4 26 33 34 39 38 39 47 47 32 31 29 26 23 21 23 20 17 16 18
29 28 15 11 16 19 17 7 6 5 5 5 7 3 5 4 9 7 12 14 15 14 18 6 6 3 4 5 6 3 2 0 3 2 18 33 40 37 36 39 50 39 29 31 31 26 24 23 23 27 26 23 22 20
24 11 17 18 19 14 5 5 4 5 7 6 8 13 15 15 14 8 8 7 12 12 3 1 4 1 4 3 1 1 1 3 8 20 25 40 41 40 48 45 38 38 36 32 28 23 21 21 22 24 27 27 24 21
20 17 13 14 14 4 5 5 4 5 9 12 7 3 12 18 16 13 11 10 5 4 6 2 5 1 3 3 4 4 6 13 20 25 38 30 35 36 39 44 38 34 33 33 28 22 22 24 23 23 23 25 24 23
24 11 6 9 8 6 3 6 6 7 9 10 11 14 15 17 21 17 9 11 10 6 5 2 4 3 5 6 7 12 20 24 32 35 24 33 27 41 40 37 37 37 34 31 24 15 15 12 13 16 18 19 19 20
16 5 4 4 6 3 4 4 6 9 9 5 10 12 12 14 12 4 6 4 8 4 2 3 5 6 5 7 10 22 24 36 35 35 29 36 33 34 35 36 37 33 32 27 21 16 13 15 17 18 14 13 13 15
5 6 1 1 2 8 5 3 6 10 12 9 11 11 8 9 7 9 11 8 7 4 5 8 8 2 13 16 18 25 39 30 31 35 39 36 35 30 25 33 32 29 27 24 19 16 12 9 14 21 22 15 13 13
8 6 4 6 4 4 8 10 9 14 9 10 11 8 8 5 7 8 12 11 6 7 7 7 13 23 24 26 32 42 29 27 21 21 22 25 27 27 26 25 28 24 18 17 15 12 9 4 10 12 17 15 17 16
7 7 4 6 4 7 7 8 8 7 4 6 4 4 6 6 4 16 4 6 5 9 15 13 16 20 18 20 25 22 20 14 16 18 25 24 24 22 23 23 20 21 22 20 18 16 10 9 13 13 12 15 21 25
9 7 5 5 11 6 5 6 8 7 6 4 3 6 4 6 16 4 5 5 7 22 19 16 22 23 24 27 31 28 23 14 17 23 24 21 21 23 21 18 19 18 13 13 17 20 17 13 15 15 14 17 21 20
2 4 4 7 7 6 6 4 5 3 5 6 4 5 5 9 4 3 4 7 22 26 19 17 25 27 27 27 27 26 26 23 18 25 24 19 21 24 24 24 24 23 22 24 28 25 26 23 20 19 15 10 10 11
4 8 10 7 6 7 6 6 7 9 4 5 7 3 4 4 2 6 5 8 23 27 20 20 24 27 24 24 19 19 19 17 23 27 27 27 25 23 21 23 25 23 18 16 15 21 28 26 25 20 19 19 18 18
6 8 12 12 9 11 6 6 6 4 5 6 2 0 2 4 6 4 3 5 15 24 21 20 19 20 20 18 20 18 20 24 29 24 20 18 17 17 13 7 8 7 16 21 15 14 18 24 20 15 15 20 23 25
11 7 6 3 7 11 3 5 5 7 6 5 3 4 4 6 5 4 5 8 8 16 21 21 19 14 10 14 24 27 27 26 27 30 27 22 19 17 16 12 9 10 11 13 15 15 14 12 9 11 11 9 7 13
9 11 9 8 9 9 13 11 7 7 6 8 5 3 4 2 7 6 8 8 5 7 19 25 23 27 23 26 28 32 28 31 33 33 28 32 30 27 27 24 19 14 16 16 15 14 12 10 10 8 5 4 5 6
10 18 9 7 7 8 9 14 5 4 10 7 6 5 4 7 7 2 2 4 7 10 15 26 34 29 23 22 29 33 29 32 28 28 24 23 24 16 16 19 22 23 20 22 20 20 22 23 22 18 13 9 7 5
5 12 9 9 7 7 7 8 5 9 11 8 3 5 4 4 5 8 13 15 15 15 11 17 34 33 31 27 25 34 36 31 26 23 14 8 14 16 12 7 14 17 19 20 21 23 22 23 21 16 13 12 10 9
13 16 9 5 6 7 10 5 3 4 5 15 12 5 9 12 14 17 18 16 17 17 12 14 25 34 29 28 31 35 21 20 28 27 23 16 20 16 11 6 9 12 12 15 19 19 19 18 16 15 13 13 12 9
16 11 15 7 5 4 8 5 5 5 5 6 8 11 14 10 8 5 5 7 7 8 10 15 18 22 14 13 28 32 25 17 11 28 26 18 16 14 13 9 8 9 9 10 14 18 20 19 16 13 13 14 14 15
Wind_Direction_850mb
310 316 319 323 328 329 329 328 329 329 332 335 340 339 339 336 340 339 329 318 317 286 292 281 306 295 300 304 307 307 323 3 306 355 341 339 321 7 303 291 122 116 161 80 83 106 112 352 329 115 137 117 124 120
309 316 319 324 330 328 329 329 329 331 334 334 336 339 338 334 333 335 326 334 316 282 284 307 305 323 304 302 279 288 290 294 304 320 286 301 313 330 328 156 30 64 0 117 40 58 37 52 81 95 116 113 117 120
311 315 318 324 326 327 328 330 332 335 332 332 336 340 340 335 329 322 319 337 326 291 308 317 336 342 335 328 315 273 301 312 292 286 257 244 308 287 327 62 110 54 13 85 127 20 62 67 81 98 115 112 115 123
309 313 317 321 324 328 327 332 334 330 329 333 336 338 336 331 332 324 321 333 322 307 309 293 330 349 360 347 338 317 305 320 300 297 243 324 330 312 42 68 66 13 27 101 82 113 77 56 74 103 108 113 113 115
307 314 316 318 322 324 325 331 334 332 331 332 334 331 327 326 337 331 333 3 339 343 283 292 321 358 359 359 358 356 9 348 321 345 339 71 23 28 2 65 29 356 172 104 88 90 104 92 94 109 113 109 113 115
306 312 317 319 321 320 324 331 334 332 332 330 327 323 312 312 330 347 324 285 336 330 319 304 323 324 357 6 14 27 12 358 356 7 353 8 12 49 47 70 11 59 75 96 98 99 100 101 105 107 108 111 110 105
308 311 313 314 316 318 322 330 331 329 332 330 326 321 304 299 315 336 343 323 325 319 295 293 304 329 347 350 358 8 5 8 19 59 14 19 20 38 34 53 55 72 84 91 99 105 90 102 103 108 106 106 105 101
301 307 311 313 315 317 320 327 328 332 335 331 327 321 325 294 312 184 267 318 312 311 296 317 290 321 354 341 342 355 352 7 22 29 7 15 32 49 50 77 89 87 95 96 105 114 112 115 112 109 109 111 106 99
303 307 311 313 313 315 319 324 326 337 336 336 329 319 333 339 333 312 314 327 354 330 321 315 304 311 338 338 334 341 2 37 21 25 12 16 28 38 144 140 129 94 114 114 112 111 115 110 111 112 113 111 104 102
305 306 310 313 313 312 321 325 329 340 344 339 345 257 188 304 313 324 357 346 1 357 341 265 291 286 325 328 323 357 19 34 56 356 18 26 68 135 155 140 130 128 126 127 120 113 116 114 118 121 117 112 107 108
295 306 313 313 315 316 321 328 331 347 352 1 339 299 348 327 333 353 4 23 350 14 331 301 297 288 333 0 291 16 306 349 59 300 91 44 67 5 111 129 137 135 133 128 122 120 116 108 118 123 122 116 113 109
305 311 313 313 313 307 313 323 331 345 345 342 331 318 357 15 36 70 350 334 0 305 310 326 319 308 314 330 8 359 27 17 43 343 59 65 39 146 135 139 141 138 133 126 121 117 110 103 100 108 114 114 112 111
311 311 315 312 303 308 307 317 325 325 329 346 312 300 327 7 35 71 341 19 351 330 330 335 322 334 323 339 343 357 28 129 47 37 69 95 106 138 153 154 153 153 145 133 124 113 106 99 98 95 107 110 108 111
305 306 313 299 298 306 317 318 318 313 326 315 301 327 146 292 230 219 282 230 288 299 329 331 301 307 337 347 23 17 347 69 70 73 100 127 124 148 165 164 157 152 147 137 132 125 107 98 96 94 97 97 104 113
301 311 305 294 312 324 317 317 292 280 288 281 254 272 247 306 289 283 294 284 312 319 327 316 293 259 293 331 9 27 19 55 95 157 153 140 146 156 150 155 148 144 138 135 140 124 108 95 91 100 99 99 102 109
314 316 305 319 316 320 318 301 227 246 251 249 238 266 243 316 301 277 294 296 320 307 314 278 281 13 350 360 29 41 322 284 208 198 138 148 152 154 156 150 139 140 159 149 137 122 112 103 98 100 97 97 99 101
321 319 312 313 318 315 289 212 230 239 266 244 244 241 255 273 262 280 282 278 321 318 280 284 306 23 293 347 218 186 134 181 155 137 140 153 162 157 146 147 166 172 159 147 139 127 116 114 114 106 102 103 100 100
323 315 298 311 325 330 182 206 242 252 255 249 238 296 247 254 265 274 292 279 289 281 302 297 294 198 233 231 235 230 161 141 153 149 135 131 157 163 156 158 162 173 167 163 157 145 145 140 131 123 113 110 106 105
322 322 288 291 330 331 216 209 224 269 262 276 269 280 275 285 289 282 251 254 263 253 265 295 305 228 235 213 226 194 176 157 146 152 159 169 162 168 169 176 182 179 177 170 165 152 135 129 150 146 135 124 116 113
317 279 241 266 297 278 275 224 220 263 266 273 276 276 279 285 291 252 168 220 229 225 236 231 239 254 266 287 179 152 148 160 158 156 153 159 172 176 186 191 184 184 180 173 170 167 174 192 204 201 183 155 135 122
252 203 182 224 277 235 258 263 244 260 282 272 288 294 270 254 229 204 208 214 231 225 236 237 292 156 131 126 151 147 146 134 130 132 135 148 156 158 162 175 185 181 179 179 182 186 211 244 254 231 213 200 160 128
188 187 218 194 226 241 267 222 251 308 274 274 285 234 256 238 219 207 171 202 232 223 203 164 137 137 129 128 128 142 145 151 157 166 170 162 162 162 165 169 168 175 183 180 186 187 169 137 144 161 188 204 190 174
193 165 199 206 222 219 256 218 228 238 226 264 266 261 238 220 193 160 235 225 229 184 168 164 162 168 154 149 159 155 153 153 170 169 169 169 166 170 171 170 173 170 172 188 200 193 176 146 133 143 164 185 187 189
136 180 203 212 209 252 240 234 228 245 265 275 247 263 227 166 156 220 232 219 191 177 169 163 169 161 162 170 179 179 179 180 186 187 188 186 185 179 176 176 182 193 214 213 211 204 200 182 162 156 141 143 151 162
191 205 199 259 229 241 211 241 230 236 249 227 238 263 204 164 160 245 229 199 178 176 184 188 184 189 183 184 190 198 210 211 206 197 197 190 187 193 204 211 218 232 235 239 228 218 206 201 195 193 191 190 186 189
246 222 208 235 210 200 217 200 209 213 247 260 238 279 181 112 165 240 238 192 184 186 187 183 188 190 199 203 213 219 216 201 181 189 188 189 196 207 218 233 243 249 226 200 202 212 206 206 206 214 229 235 238 240
245 264 228 231 258 294 251 273 219 186 247 244 266 22 145 210 239 255 188 185 189 192 186 189 197 205 208 205 198 188 175 175 185 185 189 206 228 238 238 252 226 212 204 187 195 198 201 197 199 220 245 256 261 257
241 266 223 309 274 225 154 271 251 211 235 212 158 188 218 206 243 139 150 156 165 189 193 191 196 204 222 209 200 201 196 194 201 213 223 223 218 217 201 189 179 181 158 178 176 163 157 167 202 234 261 272 249 226
242 224 219 253 261 243 219 213 237 229 208 187 167 233 245 173 125 123 144 157 176 205 213 210 217 218 240 221 203 207 211 205 207 217 225 227 227 226 222 221 222 221 196 184 178 187 208 230 240 252 245 203 179 201
247 199 212 223 210 230 235 208 256 286 183 164 279 278 190 160 153 123 290 298 297 301 274 223 209 210 224 203 201 208 211 209 224 230 241 240 236 237 233 232 233 220 214 208 210 210 218 219 216 229 240 251 255 274
257 191 223 239 258 251 261 216 219 292 228 206 250 270 272 287 281 279 275 277 281 301 273 222 204 202 212 215 223 224 218 219 218 222 213 209 200 188 182 194 186 193 210 222 224 225 228 222 224 237 248 255 256 276
206 209 213 225 253 270 182 196 234 237 224 209 216 294 282 280 287 279 265 265 265 256 242 219 210 214 219 239 233 220 219 217 201 201 199 199 187 184 191 186 179 186 203 196 192 206 218 225 230 236 249 245 251 255
212 232 225 240 305 242 183 184 242 262 228 238 247 248 249 242 238 251 265 276 276 223 236 224 214 194 213 219 207 194 176 186 213 214 202 194 192 210 207 201 195 179 163 163 181 196 208 215 224 235 235 238 246 263